Bozeman, MT

8:40 PM MDT on August 18, 2017 (GMT -0600)
Gallatin

Weather History for KBZN - March, 2014

Change the Weather History Date:

Thursday, March 20, 2014

  Actual Average Record
Temperature  
Mean Temperature 34 °F 38 °F  
Max Temperature 43 °F 51 °F 67 °F (1988)
Min Temperature 24 °F 25 °F -11 °F (1943)
Degree Days  
Heating Degree Days 31 27  
Month to date heating degree days 638 607  
Since 1 July heating degree days 6653 6187  
Cooling Degree Days 0 0  
Month to date cooling degree days 0 0  
Year to date cooling degree days 0 0  
Moisture  
Dew Point 14 °F    
Average Humidity 44    
Maximum Humidity 64    
Minimum Humidity 23    
Precipitation  
Precipitation 0.00 in 0.03 in 0.53 in (1993)
Month to date precipitation 1.12 0.52  
Year to date precipitation 2.07 1.43  
Snow  
Snow 0.00 in 0.30 in 2.40 in (1944)
Month to date snowfall 4.1 4.8  
Since 1 July snowfall 29.1 27.1  
Snow Depth 0.00 in    
Sea Level Pressure  
Sea Level Pressure 29.95 in    
Wind  
Wind Speed 15 mph (WNW)    
Max Wind Speed 37 mph    
Max Gust Speed 46 mph    
Visibility 10 miles    
Events      
T = Trace of Precipitation, MM = Missing Value Source: NWS Daily Summary

Daily Weather History Graph

Daily Weather History Graph

Search for Another Location

Airport or City:

Trip Planner

Search our weather history database for the weather conditions in past years. The results will help you decide how hot, cold, wet, or windy it might be!

Date:

Astronomy

Mar. 20, 2014 Rise Set
Actual Time 7:27 AM MDT 7:37 PM MDT
Civil Twilight 6:57 AM MDT 8:07 PM MDT
Nautical Twilight 6:22 AM MDT 8:41 PM MDT
Astronomical Twilight 5:47 AM MDT 9:17 PM MDT
Moon No Moon Rise 9:24 AM MDT (3/20)
Length of Visible Light 13h 09m
Length of Day
12h 09m
Waning Gibbous, 83% of the Moon is Illuminated
Mar 20
Waning Gibbous
Mar 23
Last Quarter
Mar 30
New
Apr 7
First Quarter
Apr 15
Full

Hourly Weather History & Observations

Time (MDT) Temp. Windchill Dew Point Humidity Pressure Visibility Wind Dir Wind Speed Gust Speed Precip Events Conditions
12:56 AM 42.1 °F 34.2 °F 14.0 °F 32% 29.88 in 10.0 mi SSW 16.1 mph - N/A   Overcast
1:56 AM 37.0 °F 29.8 °F 19.0 °F 48% 29.88 in 10.0 mi South 10.4 mph - N/A   Overcast
2:56 AM 37.9 °F 30.9 °F 19.0 °F 47% 29.84 in 10.0 mi South 10.4 mph - N/A   Overcast
3:56 AM 34.0 °F 28.0 °F 23.0 °F 64% 29.83 in 10.0 mi NE 6.9 mph - N/A   Overcast
4:56 AM 37.0 °F 34.5 °F 21.0 °F 52% 29.81 in 10.0 mi SW 3.5 mph - N/A   Overcast
5:56 AM 39.9 °F 32.9 °F 16.0 °F 38% 29.77 in 10.0 mi WSW 11.5 mph - N/A   Overcast
6:56 AM 39.0 °F 29.9 °F 16.0 °F 39% 29.80 in 10.0 mi WNW 17.3 mph - N/A   Overcast
7:56 AM 32.0 °F 26.4 °F 21.9 °F 66% 29.85 in 10.0 mi NW 5.8 mph - N/A   Overcast
8:56 AM 36.0 °F 28.5 °F 25.0 °F 64% 29.87 in 10.0 mi NW 10.4 mph - N/A   Overcast
9:56 AM 36.0 °F 28.5 °F 21.9 °F 57% 29.89 in 10.0 mi WNW 10.4 mph - N/A   Overcast
10:56 AM 37.9 °F 27.6 °F 15.1 °F 39% 29.91 in 10.0 mi WNW 20.7 mph 27.6 mph N/A   Overcast
11:56 AM 41.0 °F 30.5 °F 12.9 °F 32% 29.89 in 10.0 mi WNW 26.5 mph 38.0 mph N/A   Partly Cloudy
12:56 PM 42.1 °F 31.9 °F 10.9 °F 28% 29.88 in 10.0 mi WNW 26.5 mph 40.3 mph N/A   Partly Cloudy
1:56 PM 43.0 °F 32.7 °F 9.0 °F 25% 29.90 in 10.0 mi West 28.8 mph 40.3 mph N/A   Clear
2:56 PM 41.0 °F 30.2 °F 7.0 °F 25% 29.92 in 10.0 mi NW 27.6 mph 39.1 mph N/A   Clear
3:56 PM 39.9 °F 28.4 °F 7.0 °F 26% 29.97 in 10.0 mi NW 29.9 mph 40.3 mph N/A   Clear
4:56 PM 39.9 °F 29.0 °F 5.0 °F 23% 29.98 in 10.0 mi WNW 26.5 mph 34.5 mph N/A   Clear
5:56 PM 37.9 °F 27.6 °F 6.1 °F 27% 30.02 in 10.0 mi NW 20.7 mph - N/A   Clear
6:56 PM 36.0 °F 25.6 °F 6.1 °F 29% 30.05 in 10.0 mi NW 18.4 mph 28.8 mph N/A   Overcast
7:56 PM 30.9 °F 21.2 °F 8.1 °F 38% 30.12 in 10.0 mi NW 12.7 mph - N/A   Mostly Cloudy
8:56 PM 28.0 °F 18.1 °F 10.9 °F 49% 30.15 in 10.0 mi NW 11.5 mph - N/A   Mostly Cloudy
9:56 PM 27.0 °F 19.5 °F 12.0 °F 53% 30.17 in 10.0 mi NW 6.9 mph - N/A   Scattered Clouds
10:56 PM 26.1 °F 16.8 °F 12.9 °F 58% 30.19 in 10.0 mi West 9.2 mph - N/A   Scattered Clouds
11:56 PM 27.0 °F 20.5 °F 15.1 °F 61% 30.19 in 10.0 mi North 5.8 mph - N/A   Overcast